Jackson, KY

8:48 AM EDT on October 22, 2017 (GMT -0400)
Carroll

Weather History for KJKL - December, 2013

Change the Weather History Date:

Monday, December 30, 2013

  Actual Average Record
Temperature  
Mean Temperature 34 °F 35 °F  
Max Temperature 40 °F 43 °F 68 °F (1990)
Min Temperature 28 °F 27 °F 0 °F (1983)
Degree Days  
Heating Degree Days 31 30  
Month to date heating degree days 725 805  
Since 1 July heating degree days 1612 1605  
Cooling Degree Days 0 0  
Month to date cooling degree days 0 0  
Year to date cooling degree days 1069 1154  
Moisture  
Dew Point 28 °F    
Average Humidity 81    
Maximum Humidity 92    
Minimum Humidity 69    
Precipitation  
Precipitation 0.01 in 0.12 in 2.29 in (1990)
Month to date precipitation 7.09 4.06  
Year to date precipitation 56.72 48.22  
Snow  
Snow 0.10 in 0.20 in 2.00 in (2000)
Month to date snowfall 1.4 4.7  
Since 1 July snowfall 4.3 5.3  
Snow Depth 0.00 in    
Sea Level Pressure  
Sea Level Pressure 30.14 in    
Wind  
Wind Speed 5 mph (West)    
Max Wind Speed 15 mph    
Max Gust Speed 24 mph    
Visibility 8 miles    
Events Rain , Snow    
T = Trace of Precipitation, MM = Missing Value Source: NWS Daily Summary

Daily Weather History Graph

Daily Weather History Graph

Search for Another Location

Airport or City:

Trip Planner

Search our weather history database for the weather conditions in past years. The results will help you decide how hot, cold, wet, or windy it might be!

Date:

Astronomy

Dec. 30, 2013 Rise Set
Actual Time 7:47 AM EST 5:24 PM EST
Civil Twilight 7:18 AM EST 5:53 PM EST
Nautical Twilight 6:45 AM EST 6:26 PM EST
Astronomical Twilight 6:14 AM EST 6:58 PM EST
Moon 5:37 AM EST (12/30) 3:55 PM EST (12/30)
Length of Visible Light 10h 34m
Length of Day
9h 36m
Waning Crescent, 5% of the Moon is Illuminated
Dec 30
Waning Crescent
Jan 1
New
Jan 7
First Quarter
Jan 15
Full
Jan 24
Last Quarter

Hourly Weather History & Observations

Time (EST) Temp. Windchill Dew Point Humidity Pressure Visibility Wind Dir Wind Speed Gust Speed Precip Events Conditions
12:22 AM 39.0 °F 32.3 °F 36.0 °F 89% 29.99 in 6.0 mi West 10.4 mph 19.6 mph 0.00 in Rain Light Rain
12:53 AM 36.0 °F 27.1 °F 34.0 °F 93% 30.03 in 3.0 mi WNW 13.8 mph 24.2 mph 0.00 in   Overcast
1:38 AM 35.1 °F 29.3 °F 33.1 °F 92% 30.02 in 7.0 mi Variable 6.9 mph - 0.00 in   Overcast
1:50 AM 35.6 °F 31.7 °F 32.0 °F 87% 30.02 in 8.0 mi Variable 4.6 mph - 0.00 in   Overcast
1:53 AM 35.1 °F 29.3 °F 32.0 °F 89% 30.04 in 8.0 mi West 6.9 mph - 0.00 in   Overcast
2:28 AM 33.1 °F 26.9 °F 30.0 °F 89% 30.04 in 10.0 mi West 6.9 mph - N/A   Overcast
2:53 AM 33.1 °F 26.9 °F 30.0 °F 89% 30.07 in 7.0 mi West 6.9 mph - N/A   Overcast
3:15 AM 32.0 °F 24.8 °F 30.0 °F 92% 30.06 in 5.0 mi West 8.1 mph - N/A   Overcast
3:45 AM 32.0 °F 25.6 °F 30.0 °F 92% 30.07 in 3.0 mi Variable 6.9 mph - N/A   Overcast
3:53 AM 30.9 °F 22.2 °F 28.9 °F 92% 30.09 in 3.0 mi WNW 10.4 mph - N/A   Overcast
4:31 AM 30.9 °F 24.3 °F 28.9 °F 92% 30.08 in 3.0 mi WNW 6.9 mph - N/A   Overcast
4:53 AM 30.9 °F 25.2 °F 28.9 °F 92% 30.11 in 7.0 mi Variable 5.8 mph - N/A   Overcast
5:08 AM 30.9 °F 25.2 °F 28.9 °F 92% 30.09 in 9.0 mi WNW 5.8 mph - N/A   Overcast
5:38 AM 30.9 °F 24.3 °F 28.0 °F 89% 30.11 in 10.0 mi Variable 6.9 mph - N/A   Overcast
5:53 AM 30.9 °F 26.2 °F 28.0 °F 89% 30.14 in 10.0 mi WNW 4.6 mph - N/A   Overcast
6:53 AM 30.9 °F 25.2 °F 28.0 °F 89% 30.15 in 10.0 mi Variable 5.8 mph - N/A   Overcast
7:36 AM 30.9 °F 26.2 °F 27.0 °F 85% 30.15 in 10.0 mi WNW 4.6 mph - N/A   Overcast
7:45 AM 30.9 °F 27.5 °F 28.0 °F 89% 30.16 in 3.0 mi West 3.5 mph - 0.00 in Snow Light Snow
7:48 AM 30.2 °F - 28.4 °F 93% 30.15 in 1.8 mi Calm Calm - 0.00 in Snow Light Snow
7:53 AM 30.0 °F 24.1 °F 28.0 °F 92% 30.18 in 1.0 mi West 5.8 mph - 0.00 in Snow Light Snow
7:59 AM 30.0 °F 25.2 °F 28.0 °F 92% 30.16 in 2.5 mi Variable 4.6 mph - 0.00 in Snow Light Snow
8:06 AM 30.0 °F 25.2 °F 28.0 °F 92% 30.16 in 1.5 mi WNW 4.6 mph - 0.00 in Snow Light Snow
8:13 AM 30.0 °F 25.2 °F 28.0 °F 92% 30.16 in 2.0 mi Variable 4.6 mph - 0.01 in Snow Light Snow
8:21 AM 30.0 °F 26.5 °F 28.0 °F 92% 30.16 in 9.0 mi Variable 3.5 mph - 0.01 in   Overcast
8:53 AM 30.0 °F 26.5 °F 27.0 °F 88% 30.20 in 10.0 mi Variable 3.5 mph - 0.01 in   Overcast
9:53 AM 30.9 °F 27.5 °F 27.0 °F 85% 30.21 in 10.0 mi West 3.5 mph - N/A   Overcast
10:24 AM 30.9 °F - 27.0 °F 85% 30.19 in 10.0 mi Calm Calm - N/A   Overcast
10:53 AM 32.0 °F 27.5 °F 27.0 °F 82% 30.21 in 10.0 mi NW 4.6 mph - N/A   Overcast
11:53 AM 32.0 °F 27.5 °F 26.1 °F 79% 30.22 in 10.0 mi WNW 4.6 mph - N/A   Overcast
12:53 PM 32.0 °F - 27.0 °F 82% 30.20 in 10.0 mi Calm Calm - N/A   Overcast
1:53 PM 32.0 °F 26.4 °F 26.1 °F 79% 30.19 in 10.0 mi Variable 5.8 mph - N/A   Overcast
2:53 PM 33.1 °F 28.7 °F 25.0 °F 72% 30.17 in 10.0 mi WSW 4.6 mph - N/A   Overcast
3:53 PM 33.1 °F 28.7 °F 25.0 °F 72% 30.17 in 10.0 mi WSW 4.6 mph - N/A   Overcast
4:53 PM 33.1 °F - 26.1 °F 75% 30.18 in 10.0 mi Calm Calm - N/A   Overcast
5:53 PM 32.0 °F 28.7 °F 24.1 °F 73% 30.19 in 10.0 mi Variable 3.5 mph - N/A   Overcast
6:53 PM 30.9 °F 26.2 °F 24.1 °F 76% 30.20 in 10.0 mi Variable 4.6 mph - N/A   Overcast
7:53 PM 30.0 °F 26.5 °F 24.1 °F 79% 30.21 in 10.0 mi Variable 3.5 mph - N/A   Overcast
8:53 PM 30.0 °F 26.5 °F 25.0 °F 82% 30.22 in 10.0 mi Variable 3.5 mph - N/A   Overcast
9:53 PM 30.0 °F 26.5 °F 25.0 °F 82% 30.22 in 10.0 mi SW 3.5 mph - N/A   Overcast
10:53 PM 30.0 °F 25.2 °F 25.0 °F 82% 30.23 in 10.0 mi West 4.6 mph - N/A   Overcast
11:20 PM 28.9 °F 22.8 °F 24.1 °F 82% 30.19 in 10.0 mi Variable 5.8 mph - N/A   Mostly Cloudy
11:34 PM 28.9 °F 22.8 °F 24.1 °F 82% 30.19 in 10.0 mi Variable 5.8 mph - N/A   Mostly Cloudy
11:53 PM 28.9 °F 25.2 °F 24.1 °F 82% 30.23 in 10.0 mi Variable 3.5 mph - N/A   Mostly Cloudy